Date_and_time,latitude,longitude,wind_speed,RelWindDirFrom,WindDirFrom,air_pressure,air_temperature,relative_humidity,Temp,platform_speed_wrt_ground,air_pressure_at_mean_sea_level,platform_orientation
2018-06-05 12:00,50.911725,-96.9825266666667,19.6,23.3,152,985.12,12.2,81,13.73,0.0,1011.73,360.0
2018-06-05 12:10,50.9117266666667,-96.9825283333333,20.7,24.9,152,984.80,12.1,80,13.73,0.0,1011.42,360.0
2018-06-05 12:20,50.9117266666667,-96.9825266666667,21.2,25.4,149,984.34,12.0,83,13.72,0.0,1010.96,360.0
2018-06-05 12:30,50.9117316666667,-96.982515,21.3,25.1,148,984.17,11.9,84,13.70,0.0,1010.78,360.0
2018-06-05 12:40,50.91172,-96.9825183333333,21.1,24.3,146,984.00,11.8,85,13.68,0.0,1010.60,360.0
2018-06-05 12:50,50.9117233333333,-96.9825216666667,21.2,24.4,143,983.80,11.6,86,13.67,0.0,1010.40,360.0
2018-06-05 13:00,50.9117233333333,-96.9825183333333,20.4,24.4,143,984.02,11.4,85,13.65,0.0,1010.64,90.0
2018-06-05 13:10,50.911725,-96.98252,19.5,22.3,139,983.87,11.4,87,13.63,0.0,1010.48,90.0
2018-06-05 13:20,50.911725,-96.98252,18.6,21.1,138,983.91,11.3,87,13.64,0.0,1010.50,90.0
2018-06-05 13:30,50.9117466666667,-96.9825016666667,19.6,22.8,138,983.73,11.4,87,13.65,0.0,1010.32,90.0
2018-06-05 13:40,50.9117433333333,-96.9825233333333,20.9,23.9,142,983.36,11.5,86,13.64,0.0,1009.93,90.0
2018-06-05 13:50,50.9117466666667,-96.9825216666667,22.7,27.1,140,983.04,11.8,84,13.61,0.0,1009.59,90.0
2018-06-05 14:00,50.9117133333333,-96.9825116666667,21.8,26.0,142,983.09,12.0,82,13.61,0.0,1009.63,360.0
2018-06-05 14:10,50.91172,-96.9825133333333,20.2,23.5,143,983.16,12.1,81,13.64,0.0,1009.70,360.0
2018-06-05 14:20,50.911735,-96.982515,19.5,23.6,142,983.14,12.2,80,13.67,0.0,1009.69,360.0
2018-06-05 14:30,50.91174,-96.982515,17.3,20.9,149,983.42,12.3,80,13.70,0.0,1009.97,360.0
2018-06-05 14:40,50.9117383333333,-96.9825183333333,17.6,21.1,148,983.46,12.4,79,13.73,0.0,1010.02,360.0
2018-06-05 14:50,50.9117416666667,-96.9825166666667,15.9,19.6,147,983.52,12.5,79,13.77,0.0,1010.08,360.0
2018-06-05 15:00,50.9117233333333,-96.9825316666667,14.3,18.2,156,983.87,12.8,78,13.84,0.0,1010.43,0.0
2018-06-05 15:10,50.9117333333333,-96.9825233333333,15.8,18.6,156,983.75,13.1,75,13.92,0.0,1010.30,0.0
2018-06-05 15:20,50.9117283333333,-96.9825216666667,17.8,20.6,154,983.52,13.2,73,14.01,0.0,1010.05,0.0
2018-06-05 15:30,50.91173,-96.9825216666667,17.1,20.4,157,983.64,13.3,73,14.09,0.0,1010.17,0.0
2018-06-05 15:40,50.9117283333333,-96.98252,17.0,20.5,152,983.51,13.5,73,14.17,0.0,1010.01,0.0
2018-06-05 15:50,50.9117283333333,-96.9825216666667,17.1,20.4,158,983.58,13.8,70,14.28,0.0,1010.06,0.0
2018-06-05 16:00,50.9117283333333,-96.9825216666667,16.7,22.2,162,983.65,14.0,68,14.40,0.0,1010.11,360.0
2018-06-05 16:10,50.9117283333333,-96.9825216666667,14.6,18.4,167,983.71,14.2,67,14.51,0.0,1010.16,360.0
2018-06-05 16:20,50.9117283333333,-96.9825216666667,14.5,18.1,164,983.68,14.4,66,14.62,0.0,1010.12,360.0
2018-06-05 16:30,50.9117283333333,-96.9825216666667,14.9,17.2,157,983.56,14.4,66,14.71,0.0,1010.00,360.0
2018-06-05 16:40,50.9117433333333,-96.982505,13.2,16.3,155,983.51,14.4,66,14.80,0.0,1009.93,360.0
2018-06-05 16:50,50.9117366666667,-96.982515,14.0,16.5,144,983.15,14.6,68,14.88,0.0,1009.54,360.0
2018-06-05 17:00,50.911735,-96.9825183333333,12.6,15.4,141,983.14,14.6,70,14.93,0.0,1009.52,360.0
2018-06-05 17:10,50.911735,-96.9825183333333,12.9,15.5,134,982.96,14.5,72,14.97,0.0,1009.33,360.0
2018-06-05 17:20,50.9117316666667,-96.9825216666667,14.2,16.2,137,982.77,14.5,72,14.98,0.0,1009.13,360.0
2018-06-05 17:30,50.91173,-96.9824716666667,14.6,16.5,136,982.53,14.4,76,15.02,0.0,1008.88,360.0
2018-06-05 17:40,50.9116983333333,-96.9825333333333,13.7,15.8,132,982.33,14.4,75,15.04,0.0,1008.66,360.0
2018-06-05 17:50,50.91174,-96.9825283333333,13.1,15.3,134,982.14,14.5,75,15.05,0.0,1008.46,360.0
2018-06-05 18:00,50.9117283333333,-96.982525,12.9,14.2,142,982.18,14.6,74,15.08,0.0,1008.48,360.0
2018-06-05 18:10,50.9117316666667,-96.982525,12.9,15.7,139,982.04,14.8,73,15.15,0.0,1008.32,360.0
2018-06-05 18:20,50.9117316666667,-96.982525,12.2,14.0,138,982.09,14.9,73,15.21,0.0,1008.37,360.0
2018-06-05 18:30,50.9117316666667,-96.9825266666667,12.4,13.9,138,981.95,15.1,72,15.27,0.0,1008.21,360.0
2018-06-05 18:40,50.91173,-96.982525,12.4,14.0,140,981.88,15.4,71,15.35,0.0,1008.12,360.0
2018-06-05 18:50,50.91173,-96.9825266666667,12.1,14.0,142,981.79,15.6,71,15.47,0.0,1008.01,360.0
2018-06-05 19:00,50.91173,-96.9825266666667,12.1,14.5,143,981.66,15.7,69,15.59,0.0,1007.88,270.0
2018-06-05 19:10,50.91173,-96.9825266666667,9.5,11.3,150,981.92,15.8,70,15.74,0.0,1008.14,270.0
2018-06-05 19:20,50.91173,-96.9825266666667,11.1,12.8,145,981.86,16.0,68,15.88,0.0,1008.08,270.0
2018-06-05 19:30,50.9117283333333,-96.9825266666667,12.7,14.9,145,981.72,16.6,62,15.97,0.0,1007.91,270.0
2018-06-05 19:40,50.91174,-96.9825466666667,13.7,15.3,144,981.49,16.9,60,16.09,0.0,1007.66,270.0
2018-06-05 19:50,50.9117366666667,-96.9825366666667,14.5,15.8,144,981.26,17.1,60,16.22,0.0,1007.40,270.0
2018-06-05 20:00,50.91173,-96.9824733333333,15.5,17.4,140,980.81,17.0,62,16.33,0.0,1006.94,102.0
2018-06-05 20:10,50.9117,-96.9824933333333,13.2,14.5,150,981.07,17.2,60,16.43,0.0,1007.18,102.0
2018-06-05 20:20,50.91172,-96.982525,12.8,14.1,148,981.06,17.4,60,16.71,0.0,1007.16,102.0
2018-06-05 20:30,50.9117216666667,-96.982525,12.0,13.8,144,980.95,17.5,61,16.89,0.0,1007.04,102.0
2018-06-05 20:40,50.9117216666667,-96.9825416666667,11.9,13.1,143,980.85,17.2,66,16.89,0.0,1006.94,102.0
2018-06-05 20:50,50.91172,-96.9825316666667,12.8,14.5,143,980.60,17.3,65,16.87,0.0,1006.66,102.0
2018-06-05 21:00,50.9117233333333,-96.982535,14.1,15.9,145,980.59,17.8,61,16.93,0.0,1006.63,189.8
2018-06-05 21:10,50.9117266666667,-96.982535,13.8,15.7,145,980.60,17.8,61,17.05,0.0,1006.63,189.8
2018-06-05 21:20,50.9117283333333,-96.9825316666667,15.0,16.5,149,980.52,18.0,59,17.18,0.0,1006.51,189.8
2018-06-05 21:30,50.9117283333333,-96.9825316666667,14.8,17.2,148,980.52,18.0,60,17.41,0.0,1006.50,189.8
2018-06-05 21:40,50.91173,-96.9825316666667,13.5,15.7,147,980.50,18.0,62,17.51,0.0,1006.47,189.8
2018-06-05 21:50,50.9117433333333,-96.9825283333333,13.9,16.3,145,980.33,18.1,59,17.50,0.0,1006.30,189.8
2018-06-05 22:00,50.9117366666667,-96.982525,13.5,15.7,144,980.15,18.1,62,17.55,0.0,1006.10,360.0
2018-06-05 22:10,50.9117383333333,-96.982525,14.8,16.8,146,980.03,18.1,62,17.61,0.0,1005.96,360.0
2018-06-05 22:20,50.9117366666667,-96.9825233333333,12.9,14.6,150,980.03,17.9,65,17.72,0.0,1005.97,360.0
2018-06-05 22:30,50.9117366666667,-96.9825233333333,13.5,16.1,150,980.01,18.1,64,17.83,0.0,1005.96,360.0
2018-06-05 22:40,50.9117366666667,-96.9825266666667,13.8,15.1,150,979.93,18.1,65,17.94,0.0,1005.87,360.0
2018-06-05 22:50,50.9117366666667,-96.982525,14.3,16.8,146,979.80,18.4,64,17.99,0.0,1005.71,360.0
2018-06-05 23:00,50.911735,-96.9825233333333,15.3,17.4,149,979.66,18.6,62,18.02,0.0,1005.54,282.0
2018-06-05 23:10,50.9117333333333,-96.9825216666667,15.4,16.7,151,979.53,18.5,64,18.14,0.0,1005.41,282.0
2018-06-05 23:20,50.9117333333333,-96.9825216666667,15.7,17.3,148,979.45,18.3,65,18.25,0.0,1005.33,282.0
2018-06-05 23:30,50.9117333333333,-96.9825233333333,15.2,17.7,148,979.43,18.5,65,18.29,0.0,1005.30,282.0
2018-06-05 23:40,50.9117333333333,-96.9825233333333,15.4,17.2,148,979.33,18.5,65,18.33,0.0,1005.19,282.0
